Location: Unspecified
(0.0000°N, 0.0000°E)
Time: 17:57:36
(UTC+00:00)

MetOp-A - Pass Details

Date: 05 August 2021
Orbit: 819 x 821 km, 98.5° (Epoch: 26 September)

Event Time Altitude Azimuth Distance (km) Brightness Sun altitude
Exits shadow 19:12:17 23° 89° (E) 1,688 5.2 -15.9°
Maximum altitude 19:13:00 23° 77° (ENE) 1,660 5.2 -16.0°
Drops below altitude 10° 19:17:09 10° 26° (NNE) 2,407 6.5 -17.0°
Sets 19:19:55 0° 12° (NNE) 3,337 7.4 -17.7°
